User: anonymous   Login
Location: De Forest
(43.2480°N, 89.3440°W)
Time: 17:08:57
(UTC-05:00)
Language:

Tiangong 2 - Orbit

View from above orbital plane
View from above orbital plane
View from above satellite
View from above satellite

Ground track
Ground track

The orbit data is extracted from the following two-line orbital elements,

1 41765U 16057A   19176.50502691  .00002191  00000-0  28992-4 0  9991
2 41765  42.7825 277.1500 0008861 316.1156 153.9199 15.61784859158343
Epoch (UTC): 25 June 2019 12:07:14
Eccentricity: 0.0008861
inclination: 42.7825°
perigee height: 376 km
apogee height: 388 km
right ascension of ascending node: 277.1500°
argument of perigee: 316.1156°
revolutions per day: 15.61784859
mean anomaly at epoch: 153.9199°
orbit number at epoch: 15834

The dashed part of the orbit path shows where the satellite is in the earth's shadow,  

DLR